• Em Portugal
  • Lista de países
  • Para 7 dias
  • Temperatura da água
  • Mapas de satélite
  • Mapa do tempo
  • Widgets de tempo
  • user-avatar
    Iniciar Sessão

    Previsão horária em Kruszki

    Hoje, 21 Outubro, Domingo

    Tempo Temperatura Precipitação Vento Pressão Humidade
    00:00 +6°C° 0 mm 1 m/s 746 mmHg 89%
    01:00 +5°C° 0 mm 1 m/s 746 mmHg 90%
    02:00 +5°C° 0 mm 1 m/s 746 mmHg 91%
    03:00 +5°C° 0 mm 1 m/s 746 mmHg 92%
    04:00 +5°C° 0 mm 1 m/s 747 mmHg 92%
    05:00 +5°C° 0 mm 1 m/s 747 mmHg 93%
    06:00 +5°C° 0 mm 1 m/s 747 mmHg 93%
    07:00 +5°C° 0 mm 1 m/s 747 mmHg 93%
    08:00 +5°C° 0 mm 1 m/s 748 mmHg 91%
    09:00 +7°C° 0 mm 1 m/s 748 mmHg 84%
    10:00 +8°C° 0 mm 1 m/s 748 mmHg 77%
    11:00 +9°C° 0 mm 2 m/s 749 mmHg 71%
    12:00 +10°C° 0 mm 2 m/s 749 mmHg 67%
    13:00 +10°C° 0 mm 2 m/s 749 mmHg 64%
    14:00 +12°C° 0 mm 2 m/s 749 mmHg 61%
    15:00 +10°C° 0 mm 2 m/s 748 mmHg 64%
    16:00 +9°C° 0 mm 2 m/s 748 mmHg 66%
    17:00 +10°C° 0 mm 1 m/s 748 mmHg 69%
    18:00 +9°C° 0 mm 1 m/s 748 mmHg 73%
    19:00 +8°C° 0 mm 1 m/s 748 mmHg 77%
    20:00 +7°C° 0 mm 1 m/s 748 mmHg 81%
    21:00 +7°C° 0 mm 1 m/s 748 mmHg 83%
    22:00 +5°C° 0 mm 2 m/s 748 mmHg 84%
    23:00 +5°C° 0 mm 2 m/s 748 mmHg 86%

    Amanhã, 22 Outubro, Segunda-feira

    Tempo Temperatura Precipitação Vento Pressão Humidade
    00:00 +5°C° 0 mm 2 m/s 748 mmHg 87%
    01:00 +5°C° 0 mm 2 m/s 748 mmHg 88%
    02:00 +3°C° 0 mm 3 m/s 747 mmHg 88%
    03:00 +3°C° 0 mm 3 m/s 747 mmHg 89%
    04:00 +3°C° 0 mm 3 m/s 747 mmHg 89%
    05:00 +3°C° 0 mm 3 m/s 746 mmHg 90%
    06:00 +3°C° 0 mm 3 m/s 746 mmHg 90%
    07:00 +3°C° 0 mm 3 m/s 746 mmHg 89%
    08:00 +3°C° 0 mm 4 m/s 746 mmHg 89%
    09:00 +5°C° 0 mm 4 m/s 745 mmHg 83%
    10:00 +6°C° 0 mm 5 m/s 745 mmHg 76%
    11:00 +8°C° 0 mm 5 m/s 745 mmHg 70%
    12:00 +8°C° 0 mm 5 m/s 744 mmHg 68%
    13:00 +9°C° 0 mm 5 m/s 744 mmHg 67%
    14:00 +9°C° 0 mm 5 m/s 743 mmHg 65%
    15:00 +9°C° 0.2 mm 5 m/s 743 mmHg 71%
    16:00 +8°C° 0.2 mm 5 m/s 743 mmHg 76%
    17:00 +8°C° 0.2 mm 5 m/s 742 mmHg 81%
    18:00 +7°C° 0.3 mm 5 m/s 742 mmHg 83%
    19:00 +6°C° 0.3 mm 4 m/s 742 mmHg 84%
    20:00 +6°C° 0.3 mm 4 m/s 742 mmHg 85%
    21:00 +5°C° 0 mm 4 m/s 742 mmHg 87%
    22:00 +4°C° 0 mm 3 m/s 742 mmHg 88%
    23:00 +3°C° 0 mm 3 m/s 743 mmHg 89%

    Depois de amanhã, 23 Outubro, Terça-feira

    Tempo Temperatura Precipitação Vento Pressão Humidade
    00:00 +3°C° 0 mm 3 m/s 742 mmHg 89%
    01:00 +3°C° 0 mm 3 m/s 742 mmHg 88%
    02:00 +2°C° 0 mm 3 m/s 742 mmHg 87%
    03:00 +2°C° 0 mm 3 m/s 742 mmHg 86%
    04:00 +2°C° 0 mm 3 m/s 741 mmHg 86%
    05:00 +2°C° 0 mm 3 m/s 741 mmHg 85%
    06:00 +3°C° 0 mm 4 m/s 740 mmHg 84%
    07:00 +3°C° 0 mm 4 m/s 739 mmHg 83%
    08:00 +3°C° 0 mm 4 m/s 739 mmHg 82%
    09:00 +3°C° 0 mm 5 m/s 738 mmHg 79%
    10:00 +4°C° 0 mm 6 m/s 737 mmHg 76%
    11:00 +5°C° 0 mm 7 m/s 736 mmHg 72%
    12:00 +4°C° 0.5 mm 8 m/s 734 mmHg 73%
    13:00 +4°C° 0.5 mm 8 m/s 733 mmHg 73%
    14:00 +3°C° 0.5 mm 9 m/s 731 mmHg 74%
    15:00 +3°C° 1 mm 9 m/s 729 mmHg 76%
    16:00 +3°C° 1 mm 9 m/s 728 mmHg 79%
    17:00 +3°C° 1 mm 9 m/s 726 mmHg 81%
    18:00 +3°C° 1.5 mm 9 m/s 724 mmHg 84%
    19:00 +5°C° 1.5 mm 9 m/s 723 mmHg 86%
    20:00 +5°C° 1.5 mm 8 m/s 722 mmHg 88%
    21:00 +5°C° 0.6 mm 7 m/s 721 mmHg 87%
    22:00 +5°C° 0.6 mm 7 m/s 720 mmHg 86%
    23:00 +5°C° 0.6 mm 6 m/s 719 mmHg 85%

    24 Outubro, Quarta-feira

    Tempo Temperatura Precipitação Vento Pressão Humidade
    00:00 +5°C° 0.6 mm 6 m/s 719 mmHg 85%
    01:00 +5°C° 0.6 mm 6 m/s 719 mmHg 85%
    02:00 +4°C° 0.6 mm 6 m/s 719 mmHg 84%
    03:00 +4°C° 0.4 mm 7 m/s 719 mmHg 79%
    04:00 +3°C° 0.4 mm 7 m/s 720 mmHg 75%
    05:00 +2°C° 0.4 mm 7 m/s 720 mmHg 70%
    06:00 +2°C° 0.1 mm 7 m/s 720 mmHg 71%
    07:00 0°C° 0.1 mm 7 m/s 720 mmHg 72%
    08:00 +1°C° 0.1 mm 6 m/s 721 mmHg 73%
    09:00 +1°C° 1.7 mm 8 m/s 721 mmHg 75%
    10:00 +2°C° 1.7 mm 9 m/s 721 mmHg 78%
    11:00 +3°C° 1.7 mm 10 m/s 720 mmHg 80%
    12:00 +3°C° 1.6 mm 10 m/s 721 mmHg 80%
    13:00 +3°C° 1.6 mm 10 m/s 721 mmHg 80%
    14:00 +4°C° 1.6 mm 11 m/s 722 mmHg 80%
    15:00 +5°C° 0.6 mm 10 m/s 723 mmHg 80%
    16:00 +3°C° 0.6 mm 9 m/s 724 mmHg 80%
    17:00 +3°C° 0.6 mm 9 m/s 725 mmHg 80%
    18:00 +3°C° 0.1 mm 9 m/s 726 mmHg 78%
    19:00 +2°C° 0.1 mm 8 m/s 727 mmHg 77%
    20:00 +2°C° 0.1 mm 8 m/s 728 mmHg 76%
    21:00 +2°C° 0 mm 8 m/s 729 mmHg 76%
    22:00 +1°C° 0 mm 8 m/s 729 mmHg 76%
    23:00 +2°C° 0 mm 7 m/s 730 mmHg 76%

    25 Outubro, Quinta-feira

    Tempo Temperatura Precipitação Vento Pressão Humidade
    00:00 +2°C° 0 mm 7 m/s 730 mmHg 77%
    01:00 +2°C° 0 mm 7 m/s 730 mmHg 79%
    02:00 +2°C° 0 mm 6 m/s 731 mmHg 81%
    03:00 +2°C° 0 mm 6 m/s 731 mmHg 81%
    04:00 +1°C° 0 mm 5 m/s 731 mmHg 81%
    05:00 +1°C° 0 mm 5 m/s 731 mmHg 82%
    06:00 +1°C° 0 mm 5 m/s 730 mmHg 83%
    07:00 +1°C° 0 mm 4 m/s 730 mmHg 83%
    08:00 +1°C° 0 mm 4 m/s 730 mmHg 84%
    09:00 +1°C° 0 mm 4 m/s 729 mmHg 80%
    10:00 +3°C° 0 mm 4 m/s 729 mmHg 76%
    11:00 +4°C° 0 mm 4 m/s 729 mmHg 72%
    12:00 +4°C° 0.1 mm 4 m/s 728 mmHg 74%
    13:00 +5°C° 0.1 mm 3 m/s 728 mmHg 76%
    14:00 +5°C° 0.1 mm 3 m/s 727 mmHg 78%
    15:00 +5°C° 0.1 mm 3 m/s 728 mmHg 81%
    16:00 +4°C° 0.1 mm 3 m/s 728 mmHg 84%
    17:00 +4°C° 0.1 mm 3 m/s 728 mmHg 87%
    18:00 +4°C° 0 mm 3 m/s 728 mmHg 88%
    19:00 +4°C° 0 mm 3 m/s 728 mmHg 89%
    20:00 +4°C° 0 mm 4 m/s 728 mmHg 89%
    21:00 +4°C° 0.1 mm 4 m/s 728 mmHg 88%
    22:00 +4°C° 0.1 mm 4 m/s 729 mmHg 87%
    23:00 +4°C° 0.1 mm 4 m/s 729 mmHg 86%

    26 Outubro, Sexta-feira

    Tempo Temperatura Precipitação Vento Pressão Humidade
    00:00 +3°C° 0 mm 4 m/s 729 mmHg 85%
    01:00 +3°C° 0 mm 4 m/s 729 mmHg 85%
    02:00 +3°C° 0 mm 4 m/s 730 mmHg 84%
    03:00 +3°C° 0 mm 4 m/s 730 mmHg 86%
    04:00 +1°C° 0 mm 4 m/s 730 mmHg 87%
    05:00 +2°C° 0 mm 3 m/s 730 mmHg 88%
    06:00 +2°C° 0 mm 3 m/s 731 mmHg 89%
    07:00 +2°C° 0 mm 3 m/s 731 mmHg 89%
    08:00 +2°C° 0 mm 3 m/s 731 mmHg 90%
    09:00 +3°C° 0 mm 3 m/s 732 mmHg 84%
    10:00 +5°C° 0 mm 3 m/s 732 mmHg 78%
    11:00 +6°C° 0 mm 4 m/s 732 mmHg 73%
    12:00 +7°C° 0 mm 4 m/s 732 mmHg 70%
    13:00 +8°C° 0 mm 4 m/s 732 mmHg 68%
    14:00 +8°C° 0 mm 4 m/s 732 mmHg 65%
    15:00 +8°C° 0 mm 4 m/s 732 mmHg 69%
    16:00 +8°C° 0 mm 3 m/s 732 mmHg 74%
    17:00 +7°C° 0 mm 3 m/s 731 mmHg 79%
    18:00 +6°C° 0 mm 4 m/s 731 mmHg 81%
    19:00 +6°C° 0 mm 4 m/s 731 mmHg 83%
    20:00 +6°C° 0 mm 5 m/s 731 mmHg 86%
    21:00 +7°C° 0.1 mm 5 m/s 730 mmHg 86%
    22:00 +7°C° 0.1 mm 5 m/s 730 mmHg 86%
    23:00 +7°C° 0.1 mm 5 m/s 730 mmHg 86%
    Mostrar mais